Regional Weather Roundup
Issued by NWS

Home | Current Version | Previous Version | Graphics & Text | Print | Product List | Glossary On
Versions: 1 2 3 4 5 6 7 8 9 10 11 12 13 14 15 16 17 18 19 20 21 22 23 24 25 26 27 28 29 30 31 32 33 34 35 36 37 38 39 40 41 42 43 44 45 46 47 48 49 50
086
ASUS43 KIND 231709
RWRIN

WEATHER ROUNDUP FOR INDIANA
NATIONAL WEATHER SERVICE INDIANAPOLIS IN
100 PM EDT SAT JUL 23 2016

NOTE: "FAIR" INDICATES FEW OR NO CLOUDS BELOW 12,000 FEET WITH NO
SIGNIFICANT WEATHER AND/OR OBSTRUCTIONS TO VISIBILITY.

* - STATION DOES NOT REPORT WEATHER SUCH AS PRECIPITATION OR FOG.

+ - STATION NOT QUALITY CONTROLLED BY THE NATIONAL WEATHER SERVICE.
    USE DATA WITH CAUTION...ESPECIALLY DEWPOINT AND RELATIVE
    HUMIDITY OBSERVATIONS.

INZ001>003-010>013-019-020-231800-
NORTHWEST INDIANA

CITY           SKY/WX    TMP DP  RH WIND       PRES   REMARKS
GARY /AIRPORT/ PTSUNNY   86 N/A N/A N7        29.99F
KNOX *+        PTSUNNY   86  70  58 NW3       30.00S
LA PORTE +     MOSUNNY   87  80  79 CALM      30.01F HX 103
MICHIGAN CITY+ MOSUNNY   88  77  70 N6        30.01S HX 100
MONTICELLO +   CLOUDY    86  71  60 W3        30.01S
RENSSELAER +   MOSUNNY   86  79  79 S6        30.01F HX  99
VALPARAISO     PTSUNNY   88  76  67 S3        30.01S HX  99

$$

LMZ046-743>745-231800-
SOUTHERN LAKE MICHIGAN

STATION/POSITION TIME  TEMP    WIND        PRES    WAVE
                       AIR SEA DIR/SP/G            HT
                 (UTC) (F)     (DEG/KT/KT) (MB)    (FT)
BURNS HARBOR     1600   80      10/  3/  4 1016.3R
MICHIGAN CITY    1600   81     290/  4/  5   N/A
5NW MICH CITY    1700   80 78  320/  2/  2   N/A     0

$$

INZ004-005-014>016-021>024-231800-
NORTH CENTRAL INDIANA

CITY           SKY/WX    TMP DP  RH WIND       PRES   REMARKS
ELKHART        MOSUNNY   86  75  70 CALM      30.02R HX  95
GOSHEN         PTSUNNY   88  66  48 VRB3      30.02R
LOGANSPORT +   MOSUNNY   86  72  62 S3        30.03F
PERU/GRISSOM   CLOUDY    87  73  63 SW7       30.01S
ROCHESTER +    PTSUNNY   88  77  70 CALM      30.02S HX 100
SOUTH BEND     SUNNY     88  73  61 CALM      30.01S HX  95
WARSAW +       CLOUDY    86  72  62 N5        30.02S

$$

INZ006>009-017-018-025>027-231800-
NORTHEAST INDIANA

CITY           SKY/WX    TMP DP  RH WIND       PRES   REMARKS
ANGOLA *+        N/A     88  82  84 N3        30.03R HX 108
AUBURN +       SUNNY     88  64  45 N5        30.03S
FORT WAYNE     PTSUNNY   89  72  56 VRB7      30.03R HX  96
HUNTINGTON +   MOSUNNY  N/A N/A N/A SW3       30.02S

$$

INZ028-029-035-036-043>045-051>053-231800-
WEST CENTRAL INDIANA

CITY           SKY/WX    TMP DP  RH WIND       PRES   REMARKS
CRAWFORDSVL +  MOSUNNY   84  74  72 CALM      30.03S
GREENCASTLE +  CLOUDY    84  77  79 CALM      30.03F
LAFAYETTE      CLOUDY    86  76  71 VRB6      30.01S HX  96
TERRE HAUTE    SUNNY     87  72  60 CALM      30.02S

$$

INZ030>032-037>040-046>048-054>057-064-065-231800-
CENTRAL INDIANA

CITY           SKY/WX    TMP DP  RH WIND       PRES   REMARKS
ANDERSON       MOSUNNY   84  72  65 CALM      30.05R
COLUMBUS       MOSUNNY   84  75  74 W3        30.02F
FISHERS *+     MOSUNNY   86  75  70 SW5       30.03S HX  95
FRANKFORT +    MOSUNNY   90  73  57 CALM      30.04S HX  98
INDIANAPOLIS   PTSUNNY   87  72  60 W7        30.03S
-EAGLE CREEK   MOSUNNY   89  71  55 VRB5      30.02S HX  95
KOKOMO *+      CLOUDY    88  72  58 NW7       30.02F
MARION +       MOSUNNY   85  73  67 CALM      30.03F
MT COMFORT *+  PTSUNNY   86  73  66 CALM      30.04S
SHELBYVILLE    SUNNY     87  72  60 CALM      30.02S
ZIONSVILLE +   MOSUNNY   84  74  71 W3        30.04S

$$

INZ033-034-041-042-049-050-058-059-231800-
EAST CENTRAL INDIANA

CITY           SKY/WX    TMP DP  RH WIND       PRES   REMARKS
MUNCIE         PTSUNNY   86  73  65 NW6       30.04R

$$

INZ060-061-067>069-081>083-085>088-231800-
SOUTHWEST INDIANA

CITY           SKY/WX    TMP DP  RH WIND       PRES   REMARKS
EVANSVILLE     CLOUDY    87  75  67 CALM      30.00S HX  96
HUNTINGBURG *+ MOSUNNY   88  75  66 S3        30.01S HX  97
WASHINGTON +   MOSUNNY   86  78  78 MISG      30.00F HX  98

$$

INZ062-063-066-070>080-084-089>092-231800-
SOUTH CENTRAL AND SOUTHEAST INDIANA

CITY           SKY/WX    TMP DP  RH WIND       PRES   REMARKS
BLOOMINGTON    MOSUNNY   87  73  62 S3        30.02F
MADISON *+     MOSUNNY   88  70  55 CALM      30.04F
NORTH VERNON + MOSUNNY   88  77  70 CALM      30.04S HX 100
SEYMOUR +      MOSUNNY   88  73  62 CALM      30.02S HX  96

$$





USA.gov is the U.S. government's official web portal to all federal, state and local government web resources and services.